Regional Weather Roundup
Issued by NWS Kansas City/Pleasant Hill, MO

Home | Current Version | Previous Version | Graphics & Text | Print | Product List | Glossary Off
Versions: 1 2 3 4 5 6 7 8 9 10 11 12 13 14 15 16 17 18 19 20 21 22 23 24 25 26 27 28 29 30 31 32 33 34 35 36 37 38 39 40 41 42 43 44 45 46 47 48 49 50

000
ASUS43 KEAX 170904
RWREAX

WEATHER ROUNDUP FOR EASTERN KANSAS AND NORTHWEST MISSOURI
NATIONAL WEATHER SERVICE KANSAS CITY/PLEASANT HILL MO
400 AM CDT WED SEP 17 2014

KSZ040-057-103>105-MOZ028-029-037-043-171000-
...KANSAS CITY METROPOLITAN AREA...

CITY           SKY/WX    TMP DP  RH WIND       PRES   REMARKS
K.C. INTL      CLOUDY    64  59  83 SE6       29.96F
K.C. DOWNTOWN  CLOUDY    66  59  78 E3        29.96F
LEES SUMMIT    MOCLDY    63  59  87 S6        29.98F
OLATHE - IXD   LGT RAIN  63  61  93 SE7       29.95F FOG
OLATHE - OJC   CLOUDY    62  60  93 SE8       29.95F
LAWRENCE       TSTM      63  60  90 SE7       29.94F FOG

$$

MOZ001>008-011>017-020>025-030>033-038>040-044>046-053-054-171000-
...NORTHERN AND CENTRAL MISSOURI...

CITY           SKY/WX    TMP DP  RH WIND       PRES   REMARKS
ST. JOSEPH     CLOUDY    63  58  83 S3        29.96F
MOSBY          CLOUDY    61  57  88 CALM      29.97F
WHITEMAN AFB   CLOUDY    62  60  93 S6        29.97F
CLINTON        PTCLDY    63  63 100 CALM      29.98F
SEDALIA        CLOUDY    63  59  87 SE5       30.00F
WARSAW         NOT AVBL
MARSHALL       CLOUDY    61  59  94 SE5       30.01S
CHILLICOTHE      N/A     60  55  83 S3        30.00F
KIRKSVILLE     CLOUDY    54  52  93 SE5       30.02F

$$

MOZ041-047>049-056>058-063>065-088>090-097-171000-
...EASTERN AND SOUTHERN MISSOURI...

CITY           SKY/WX    TMP DP  RH WIND       PRES   REMARKS
ST. LOUIS INTL PTCLDY    54  50  86 S5        30.07F
SPIRIT OF STL  FOG       47  47 100 CALM      30.06F VSB 1/4
COLUMBIA         N/A     57  54  89 SE7       30.02F
JEFFERSON CITY CLOUDY    57  55  93 CALM      30.03F
MEXICO         MOCLDY   N/A N/A N/A SE3       30.03F HAZE
ROLLA          CLOUDY    56  54  93 SE8       30.03F
LEBANON        CLOUDY    63  61  94 S6        30.02F FOG
OSAGE BEACH    CLOUDY    61  55  82 S5        30.02F
SPRINGFIELD    CLOUDY    64  63  96 S9        30.00F FOG
BRANSON        FOG       64  63  94 E6        30.04S VSB<1/4
JOPLIN         CLOUDY    67  66  97 S8        29.98F
WEST PLAINS    CLOUDY    63  58  83 S5        30.06F

$$

IAZ060-094-KSZ022-034>040-054-083-096-NEZ052-066-093-171000-
...KANSAS...SOUTHEAST NEBRASKA AND IOWA...

CITY           SKY/WX    TMP DP  RH WIND       PRES   REMARKS
TOPEKA         RAIN      65  62  90 SE5       29.93F FOG
MANHATTAN      CLOUDY    64  62  93 CALM      29.92F
EMPORIA        MOCLDY    65  64  97 SE9       29.94F
CHANUTE        MOCLDY    65  64  97 S7        29.95F FOG
WICHITA        MOCLDY    65  63  93 S6        29.95F FOG
OMAHA          CLOUDY    62  53  72 SE6       29.95F
LINCOLN        CLEAR     57  52  83 CALM      29.95R
FALLS CITY     MOCLDY    60  57  89 E5        29.94F
LAMONI         CLOUDY    57  51  80 SE6       29.98F
DES MOINES     CLOUDY    57  49  74 SE5       30.00F

$$



USA.gov is the U.S. government's official web portal to all federal, state and local government web resources and services.